Theta_e
323 322 323 328 328 325 327 326 323 325 327 326 332 332 334 340 341 344 342 339 340 341 340 340 336 333 329 328 330 329 329 327 327 324 324 324 320 314 312 314 326 325 324 330 329 329 325 325 328
323 322 327 328 326 327 324 323 323 323 325 325 326 326 329 338 339 337 336 340 340 339 338 339 336 335 332 328 328 328 326 327 329 328 328 325 322 317 312 311 321 321 322 328 330 328 319 323 326
322 325 326 329 329 325 324 325 325 324 323 324 324 325 335 333 333 334 337 341 341 339 339 341 338 336 334 330 328 325 324 326 327 328 329 321 325 319 311 310 310 313 318 322 330 328 313 317 323
323 326 327 328 331 327 326 323 324 325 325 325 325 331 330 321 321 322 335 339 341 339 340 340 340 337 335 331 329 323 324 323 326 329 326 323 326 320 312 310 311 314 319 328 330 325 312 313 313
324 326 328 330 330 328 323 320 324 324 324 324 326 327 323 314 315 318 325 336 340 340 339 340 339 339 335 329 330 329 323 320 324 328 326 330 328 322 314 311 311 315 315 325 329 320 312 312 312
324 326 329 330 329 327 320 319 323 322 322 321 322 323 320 315 320 315 319 324 334 339 339 339 338 339 337 331 329 329 326 318 321 328 329 332 330 323 316 311 314 316 315 314 324 318 311 311 312
325 327 329 328 327 326 319 317 319 319 318 319 320 319 321 317 310 309 312 319 325 331 338 339 338 337 337 333 330 326 325 314 324 328 330 333 331 325 320 314 311 322 318 314 314 313 310 310 310
325 326 327 326 326 325 316 315 317 316 316 317 319 318 312 305 305 307 306 310 320 320 329 333 338 336 335 336 331 327 325 314 322 329 333 334 333 327 322 318 312 320 323 321 319 309 309 309 309
324 325 323 323 322 318 311 311 312 309 310 306 306 305 302 302 302 302 303 305 308 312 316 323 332 335 336 335 334 333 327 316 321 328 332 336 335 329 325 322 315 312 315 318 322 309 307 307 308
321 321 318 311 308 306 306 304 303 303 304 305 303 302 302 301 301 301 301 301 302 305 309 310 318 331 332 337 335 334 332 323 321 329 331 336 330 332 329 325 320 314 313 315 322 310 308 307 307
313 316 314 306 303 302 303 303 303 303 304 303 301 301 301 302 303 303 302 302 301 302 304 307 308 315 329 332 337 335 333 332 321 327 330 333 329 333 328 328 326 319 315 312 313 310 308 307 307
309 306 306 303 300 302 302 302 303 304 304 301 301 301 302 303 303 303 304 304 304 304 306 306 306 308 310 324 332 334 334 332 332 323 331 330 332 333 331 328 328 326 324 316 310 309 307 307 307
305 303 301 301 301 301 301 303 302 303 302 301 301 302 302 303 302 302 302 303 305 307 310 313 314 310 312 314 319 330 332 333 332 331 324 331 333 332 332 330 328 327 327 324 315 310 309 309 308
304 302 301 301 301 302 301 302 303 303 302 301 302 302 302 302 302 301 302 302 302 302 302 303 310 309 315 322 323 327 330 333 333 331 330 324 331 331 331 331 328 328 329 328 323 317 313 313 314
302 304 303 302 301 302 301 305 302 302 302 302 302 302 302 302 302 301 301 301 301 301 301 301 306 308 308 316 321 323 327 330 334 332 329 327 326 329 330 330 330 329 328 327 327 323 318 317 316
303 304 305 303 301 302 302 307 303 303 302 301 302 302 302 301 301 302 301 300 300 300 300 300 301 301 301 303 308 318 322 326 331 332 331 330 328 327 328 330 329 329 329 327 326 325 321 319 319
305 304 303 304 301 301 301 302 305 304 303 301 302 302 302 301 301 301 301 301 300 300 299 299 299 300 300 301 301 303 313 321 326 324 326 329 329 328 325 327 327 329 330 327 326 327 323 319 318
302 302 302 303 303 301 300 300 302 304 303 301 302 302 302 301 301 300 301 301 300 300 299 299 298 298 298 298 299 300 302 305 317 320 315 321 323 328 328 326 328 330 328 328 327 327 325 321 317
300 301 302 303 302 298 300 301 302 304 303 302 302 302 302 301 301 301 301 301 300 299 299 299 299 299 299 298 298 298 299 301 301 309 314 314 313 318 323 328 328 326 328 327 327 327 325 322 318
301 301 301 301 301 299 299 300 301 302 303 303 302 301 302 301 301 300 300 300 300 299 299 299 298 299 299 300 298 297 297 298 298 300 305 308 312 311 314 318 319 328 329 327 328 328 324 322 320
303 301 299 298 299 300 299 300 304 303 303 302 302 302 302 301 301 300 300 300 299 299 299 298 298 299 299 298 298 297 297 297 297 297 300 301 307 309 310 310 314 320 329 327 327 327 324 323 320
301 299 299 299 298 300 301 299 305 302 300 301 303 303 302 301 300 300 299 299 299 298 298 298 298 299 299 298 297 297 296 296 296 296 297 298 299 301 309 308 310 310 320 327 327 326 324 323 321
301 298 298 298 298 299 301 298 302 302 302 301 303 303 302 301 300 300 299 299 299 298 298 298 298 298 298 297 297 296 296 296 296 296 296 296 296 299 303 308 309 308 311 324 327 326 325 322 323
299 299 300 298 298 301 302 300 300 302 302 303 303 303 302 301 300 300 300 299 299 298 298 298 298 298 297 297 296 296 295 295 297 296 296 296 296 298 301 305 307 307 310 318 327 326 324 323 323
299 302 308 306 305 311 299 299 299 303 303 302 302 302 301 300 300 300 299 299 299 298 298 297 297 297 297 297 296 295 295 295 296 296 296 297 299 300 301 302 304 305 308 308 312 325 324 323 323
299 298 303 304 306 304 298 299 301 303 303 303 302 301 301 301 300 299 299 299 298 298 297 296 296 297 297 297 296 295 295 295 295 296 296 297 298 300 301 301 302 306 306 307 311 319 325 323 323
298 301 297 299 297 299 300 301 302 303 301 301 301 301 300 300 300 300 299 298 298 297 296 296 296 296 296 297 296 296 295 296 295 295 295 297 299 300 300 300 302 306 307 306 310 314 324 324 324
297 297 300 299 301 300 305 304 304 302 302 302 300 300 301 301 300 299 298 298 297 297 296 296 296 296 295 295 295 295 294 294 295 295 296 298 299 300 300 301 303 306 308 308 312 314 316 324 325
295 296 296 296 298 302 303 302 303 303 302 301 299 300 301 300 299 298 297 297 297 297 296 295 296 295 295 294 294 294 294 294 295 295 297 298 299 300 301 302 302 305 309 308 313 314 317 324 325
295 299 298 299 299 297 299 299 301 302 301 300 299 300 300 300 299 298 297 297 297 297 296 296 295 294 293 293 292 293 294 294 295 296 297 297 298 299 300 302 304 304 308 309 313 313 315 321 324
Wind_Speed
11 10 8 8 2 3 2 5 4 4 6 13 6 4 4 24 15 5 8 14 13 2 16 9 13 11 12 12 11 12 13 13 12 11 10 9 8 7 8 10 14 13 15 13 7 7 13 12 11
11 10 5 6 3 3 5 7 9 8 6 7 10 14 10 8 19 11 23 19 13 1 13 12 12 12 12 13 13 13 13 11 12 11 9 9 9 8 8 10 16 15 14 18 7 6 12 14 13
10 9 5 3 3 5 5 11 13 13 2 5 8 9 7 13 16 12 20 16 12 1 10 14 8 13 13 14 15 15 14 13 14 14 11 10 10 10 9 12 11 12 16 19 9 7 10 13 15
10 3 6 2 5 11 11 12 13 12 12 15 12 6 15 19 13 20 16 18 13 4 7 13 10 11 14 15 16 16 16 16 15 16 15 12 11 10 10 12 12 13 13 12 11 10 13 13 13
6 6 3 3 5 5 14 13 13 9 17 20 18 14 12 16 12 15 22 16 14 9 8 14 15 12 14 16 17 17 18 18 19 18 16 13 11 11 11 11 13 14 14 14 13 13 16 14 14
4 3 3 5 4 9 11 16 9 13 16 18 12 18 8 11 20 26 19 22 14 9 10 13 16 17 18 18 18 18 19 20 20 21 18 17 13 12 12 12 13 15 15 16 15 15 16 15 14
3 4 6 8 9 4 6 14 13 10 14 11 15 8 7 22 26 28 21 13 21 18 11 14 18 19 19 21 20 20 19 21 23 23 20 21 17 14 13 13 14 14 16 16 17 17 15 16 15
3 4 7 7 4 5 6 11 11 13 7 17 14 7 10 31 32 31 24 16 10 16 17 21 17 21 21 20 23 23 22 21 24 26 25 25 20 18 16 14 15 16 16 16 16 17 16 17 17
1 2 4 5 6 5 18 9 12 13 11 16 15 18 22 27 29 29 26 19 14 14 13 15 20 21 23 23 23 22 25 24 26 27 28 29 24 21 20 18 18 18 18 17 19 19 17 18 19
3 2 5 8 11 6 13 13 14 8 12 13 23 24 27 28 28 25 26 25 23 20 17 16 22 19 25 24 26 26 23 26 29 30 30 33 29 25 24 22 20 21 21 20 19 20 20 20 20
8 5 6 10 9 9 12 13 11 11 6 13 18 21 22 23 23 24 24 24 23 23 22 17 17 22 22 24 26 29 30 28 32 34 33 34 33 31 29 26 24 23 23 24 23 23 23 23 21
5 9 10 5 8 5 8 10 8 6 6 12 13 14 16 20 23 24 24 23 23 24 23 23 22 20 24 25 25 28 32 33 31 38 37 38 40 35 31 32 29 27 26 26 26 27 25 25 23
8 5 9 5 9 3 12 11 4 4 7 10 11 11 14 16 18 21 22 23 22 21 20 19 20 18 21 22 25 28 30 37 33 32 40 40 42 39 36 35 34 31 28 27 26 28 27 26 24
5 8 5 5 10 3 9 8 10 2 9 10 10 10 12 14 16 18 20 23 26 26 24 21 25 24 19 18 22 24 30 34 32 35 35 40 42 42 39 40 38 34 31 28 28 25 27 26 24
2 1 4 5 7 4 14 5 8 1 6 9 10 9 11 13 16 17 18 20 23 26 29 26 19 26 26 24 24 29 30 28 44 38 34 39 40 43 44 42 42 38 35 32 29 27 25 27 27
1 2 3 3 7 4 8 1 6 1 5 10 12 9 11 14 15 16 17 19 20 24 28 31 30 29 28 29 29 27 30 34 33 38 47 40 45 43 46 46 46 45 40 36 34 31 29 28 27
4 2 5 4 4 2 5 7 8 8 5 10 11 12 13 14 16 15 17 20 22 24 28 32 35 35 36 34 33 32 31 31 24 11 19 30 43 47 50 52 49 46 46 42 40 35 34 31 31
1 3 4 6 2 3 9 18 18 18 9 9 10 10 11 13 16 17 18 20 23 26 28 31 36 35 36 40 36 37 35 32 33 26 27 15 18 36 48 51 50 48 49 48 45 40 37 34 31
4 4 8 5 6 6 6 13 13 14 11 11 7 10 12 14 15 16 18 20 23 26 29 32 33 35 34 39 40 40 39 40 38 43 47 39 33 24 22 53 54 50 52 49 49 45 42 37 32
2 7 6 8 3 7 9 20 18 15 13 10 8 11 12 14 16 18 19 20 22 27 30 34 37 37 38 35 37 41 41 39 39 44 50 58 51 46 25 16 14 49 52 52 52 50 47 42 38
1 3 5 6 11 11 9 8 2 6 15 8 11 14 11 13 17 19 22 24 24 27 30 32 36 39 39 39 36 38 42 42 41 38 45 48 55 54 48 42 30 28 55 53 53 55 50 48 43
2 5 6 9 7 4 3 5 4 7 8 8 15 10 10 12 17 20 23 24 29 32 30 33 37 39 41 38 35 32 37 43 42 42 40 44 44 50 53 51 36 37 21 58 56 55 54 49 49
3 5 6 4 6 7 4 1 7 7 6 9 12 4 7 11 15 22 23 26 33 30 33 35 35 39 35 36 36 35 36 37 42 41 44 42 38 41 46 54 41 43 37 37 59 56 59 55 51
7 6 5 3 3 1 3 1 6 5 5 2 4 5 8 14 19 25 23 29 30 33 35 34 35 36 39 36 35 36 35 36 37 39 41 45 42 36 32 46 53 50 36 23 56 63 60 60 51
4 3 2 4 2 4 6 3 11 7 4 3 3 6 15 18 21 23 28 32 32 34 34 34 40 41 38 37 36 33 34 35 36 39 40 40 39 38 30 29 44 48 42 45 51 55 64 61 58
3 3 2 4 3 4 5 6 6 4 2 10 10 11 15 17 27 27 29 30 35 36 35 38 38 36 37 39 35 34 34 36 36 36 39 40 38 37 37 27 27 38 42 44 51 28 65 58 56
1 2 1 2 2 2 5 7 9 2 4 4 6 5 18 21 24 27 29 31 33 35 38 36 35 40 48 34 33 38 42 36 35 36 38 38 38 38 40 31 28 32 34 41 47 29 49 60 56
2 1 1 1 3 5 6 6 10 6 7 4 3 14 20 22 23 27 30 32 34 33 34 37 45 47 34 34 34 40 38 36 35 35 37 36 38 35 35 32 31 35 31 38 35 32 28 53 55
2 2 1 1 2 3 4 6 4 2 2 3 6 18 21 24 25 29 30 32 32 33 38 39 43 34 35 35 38 38 38 36 31 32 32 31 34 34 36 33 36 38 34 35 36 38 26 41 56
3 2 6 4 4 3 1 9 7 0 2 7 15 19 23 22 27 29 30 34 35 41 41 43 37 34 30 38 39 30 32 30 28 28 30 33 34 34 36 35 32 40 33 31 38 40 33 28 60
Wind_Direction
358 357 356 310 255 217 216 91 26 9 37 351 37 350 324 41 1 63 11 3 315 278 277 272 224 217 216 215 223 226 226 233 234 234 234 230 228 212 205 203 207 194 187 182 172 187 194 188 183
359 1 331 278 259 250 65 58 49 19 73 346 335 356 351 68 32 38 3 351 330 191 265 268 235 224 224 227 228 234 237 238 239 239 235 228 232 233 229 210 211 219 197 201 169 187 191 192 191
343 353 300 322 295 32 97 44 26 348 233 358 357 313 40 350 33 10 356 355 352 261 258 281 255 225 230 231 234 236 243 231 244 252 247 257 244 241 240 231 222 207 199 202 179 182 182 189 194
350 255 240 250 318 55 53 39 4 337 356 25 23 74 78 47 34 0 9 0 351 305 244 274 259 244 230 234 237 238 239 239 240 241 252 259 251 250 250 235 230 215 197 188 183 197 184 188 196
327 271 259 267 288 78 76 37 357 12 357 26 16 357 91 31 21 30 13 7 354 332 274 264 270 255 246 235 235 239 243 240 235 240 250 247 253 266 266 252 235 216 206 190 192 203 194 196 197
272 258 281 264 334 108 64 16 12 16 345 37 10 338 76 354 349 1 15 353 342 319 302 269 274 269 260 239 238 241 246 239 234 237 246 245 246 260 268 264 243 227 221 212 203 208 200 202 204
250 278 269 313 303 22 54 358 36 357 343 9 345 325 301 336 333 339 350 359 342 336 294 293 277 275 274 253 243 242 241 238 233 233 244 241 248 254 256 261 249 230 230 221 219 216 208 210 210
318 245 277 274 310 84 47 2 9 9 333 324 346 359 347 336 323 323 332 341 332 351 337 310 294 284 274 268 256 248 245 235 230 233 238 240 245 252 250 250 250 235 229 223 224 222 218 219 218
314 266 247 30 10 30 14 0 350 338 318 337 8 4 339 324 326 326 326 324 323 312 326 331 319 291 278 272 268 262 249 239 229 231 240 239 243 244 248 248 249 248 244 234 227 229 225 225 223
349 231 60 31 35 6 343 352 357 350 332 3 352 337 336 345 347 344 338 333 326 312 301 322 320 300 295 261 262 260 259 248 233 233 234 237 243 250 250 248 246 246 244 242 232 237 233 233 230
18 43 120 42 28 2 2 360 340 354 16 11 344 341 345 349 354 350 345 343 339 330 319 308 317 303 290 291 261 252 252 255 245 237 236 234 244 247 251 249 246 245 245 243 240 242 239 237 236
111 47 31 39 18 18 356 319 324 351 10 338 342 341 347 353 356 358 354 347 341 339 337 328 314 310 310 291 281 270 244 255 252 246 237 234 239 241 236 244 248 249 250 249 246 245 246 243 242
61 91 70 48 31 355 347 325 328 323 351 345 339 349 357 359 360 358 356 358 353 351 350 337 332 310 308 311 304 282 272 238 250 252 245 241 239 240 234 236 245 249 250 251 247 247 247 248 243
57 70 62 33 22 14 352 303 304 77 349 345 344 346 350 353 356 355 358 356 356 356 352 332 331 319 301 304 293 286 281 270 238 246 249 244 245 241 236 235 238 244 243 253 249 246 245 248 247
124 278 196 83 355 40 335 267 215 345 340 333 338 334 339 344 344 346 350 353 348 346 347 358 339 323 316 308 300 293 279 287 251 242 236 240 244 244 239 235 234 238 237 247 245 246 242 242 244
221 343 319 91 8 33 358 168 145 275 329 329 331 328 329 332 335 331 334 337 339 339 340 341 338 340 342 331 308 300 292 287 277 256 241 241 242 244 244 239 237 238 236 239 234 240 237 237 241
45 329 16 326 98 319 42 282 220 330 296 309 316 323 322 322 324 323 321 323 328 333 335 332 332 331 329 329 332 315 293 295 280 251 255 255 243 244 245 245 243 242 235 233 233 236 236 235 235
47 345 340 301 39 8 288 268 266 274 245 266 298 311 320 324 327 325 321 318 323 329 328 327 325 327 325 322 322 320 322 298 285 279 309 288 262 252 251 240 241 235 239 234 231 231 236 234 237
28 318 280 315 24 349 285 288 275 271 229 246 282 311 319 322 327 326 323 325 324 326 328 323 324 325 328 323 321 316 316 314 310 289 287 294 308 308 267 236 235 239 231 234 232 227 229 227 228
301 291 333 301 77 336 284 287 272 243 237 223 260 288 305 317 323 325 324 325 323 321 323 323 321 325 324 322 317 313 315 312 311 309 292 289 293 294 305 296 299 236 226 229 228 228 223 226 224
311 309 6 294 314 266 289 271 216 195 204 202 252 270 289 314 321 322 325 328 327 322 323 318 317 321 321 318 314 312 311 313 314 309 298 298 291 284 296 299 306 297 225 224 221 224 221 217 216
315 47 332 308 328 298 39 284 240 175 196 218 239 243 294 304 315 316 319 322 322 322 319 314 316 321 321 320 312 308 306 307 310 309 305 298 295 299 288 290 301 297 290 224 219 221 219 220 213
228 13 284 307 291 315 199 282 262 123 201 233 214 236 277 308 314 312 317 316 319 320 320 320 317 319 317 313 308 306 303 302 305 307 305 300 298 297 289 286 292 305 302 255 219 220 219 219 216
291 284 204 215 229 328 124 48 277 187 200 153 189 233 305 306 307 312 311 318 318 318 320 317 316 316 316 313 309 307 303 302 300 300 303 305 303 293 296 277 284 291 302 320 222 223 227 213 215
302 318 318 349 5 236 116 323 250 283 205 188 269 289 287 299 315 327 319 322 319 321 317 312 314 317 317 315 309 304 301 297 295 295 298 300 296 290 290 293 287 293 292 302 297 221 215 211 216
6 26 125 260 300 310 142 234 255 177 319 265 257 276 290 314 316 320 321 319 321 319 316 315 315 316 316 315 308 305 304 301 298 293 297 296 292 287 285 293 292 287 292 301 287 273 209 209 214
20 64 60 307 138 349 241 273 286 303 199 175 209 318 318 317 325 326 323 323 320 317 319 316 314 310 317 314 308 302 305 304 297 292 295 294 290 282 281 284 281 274 279 289 284 295 216 208 213
336 51 113 326 357 290 284 277 248 240 248 177 17 321 317 323 329 330 329 324 320 320 318 311 312 319 320 317 313 309 310 305 296 293 294 291 291 287 287 287 276 270 272 277 276 287 284 212 217
156 167 60 83 162 227 301 254 219 282 351 297 292 295 311 329 332 330 326 328 323 320 319 317 323 324 317 319 315 309 309 310 301 299 295 293 291 286 282 282 279 272 276 278 279 273 288 219 212
352 226 173 143 234 242 284 267 266 237 205 252 273 297 323 323 328 330 327 327 326 325 325 325 326 323 321 317 322 319 316 314 306 299 293 295 298 292 282 285 286 280 272 271 274 272 275 251 218